User: anonymous   Login
Location: Arrodets-la-Barthe
(43.0306°N, 0.2829°E)
Time: 04:52:16
(UTC+00:00)
Language:

Iridium 4 Rocket - Orbit

View from above orbital plane
View from above orbital plane
View from above satellite
View from above satellite

Ground track
Ground track

The orbit data is extracted from the following two-line orbital elements,

1 24797U 97020F   22021.50865537  .00000282  00000-0  53596-4 0  9997
2 24797  86.8944  98.3178 0226674 116.7522 256.1189 14.44330872300277
Epoch (UTC): 21 January 2022 12:12:27
Eccentricity: 0.0226674
inclination: 86.8944°
perigee height: 583 km
apogee height: 905 km
right ascension of ascending node: 98.3178°
argument of perigee: 116.7522°
revolutions per day: 14.44330872
mean anomaly at epoch: 256.1189°
orbit number at epoch: 30027

The dashed part of the orbit path shows where the satellite is in the earth's shadow,  

DLR